Time,TemperatureF,DewpointF,PressureIn,WindDirection,WindDirectionDegrees,WindSpeedMPH,WindSpeedGustMPH,Humidity,HourlyPrecipIn,Conditions,Clouds,dailyrainin,SoftwareType,DateUTC
2013-12-17 00:12:00,37.0,34.0,30.27,SSE,157,0.0,0.0,88,0.00,,,0.00,weatherlink.com 1.10,2013-12-17 06:12:00,
2013-12-17 00:27:00,37.1,34.0,30.27,SSE,157,0.0,0.0,88,0.00,,,0.00,weatherlink.com 1.10,2013-12-17 06:27:00,
2013-12-17 00:42:00,36.8,34.0,30.27,SSE,157,0.0,0.0,89,0.00,,,0.00,weatherlink.com 1.10,2013-12-17 06:42:00,
2013-12-17 00:57:00,36.8,34.0,30.27,SSE,157,0.0,0.0,89,0.00,,,0.00,weatherlink.com 1.10,2013-12-17 06:57:00,
2013-12-17 01:12:00,37.0,34.0,30.27,SSE,157,0.0,0.0,88,0.00,,,0.00,weatherlink.com 1.10,2013-12-17 07:12:00,
2013-12-17 01:27:00,37.5,34.0,30.27,SSE,157,0.0,0.0,88,0.00,,,0.00,weatherlink.com 1.10,2013-12-17 07:27:00,
2013-12-17 01:42:00,37.7,35.0,30.28,SSE,157,0.0,0.0,88,0.00,,,0.00,weatherlink.com 1.10,2013-12-17 07:42:00,
2013-12-17 01:57:00,37.7,35.0,30.27,SSE,157,0.0,0.0,88,0.00,,,0.00,weatherlink.com 1.10,2013-12-17 07:57:00,
2013-12-17 02:12:00,37.4,34.0,30.27,SSE,157,0.0,0.0,88,0.00,,,0.00,weatherlink.com 1.10,2013-12-17 08:12:00,
2013-12-17 02:27:00,36.4,33.0,30.28,SSE,157,0.0,0.0,88,0.00,,,0.00,weatherlink.com 1.10,2013-12-17 08:27:00,
2013-12-17 02:42:00,36.3,33.0,30.28,SSE,157,0.0,0.0,88,0.00,,,0.00,weatherlink.com 1.10,2013-12-17 08:42:00,
2013-12-17 02:57:00,36.4,33.0,30.28,SSE,157,0.0,0.0,88,0.00,,,0.00,weatherlink.com 1.10,2013-12-17 08:57:00,
2013-12-17 03:11:00,36.2,33.0,30.28,SSE,157,0.0,0.0,88,0.00,,,0.00,weatherlink.com 1.10,2013-12-17 09:11:00,
2013-12-17 03:27:00,35.9,33.0,30.28,SSE,157,0.0,0.0,88,0.00,,,0.00,weatherlink.com 1.10,2013-12-17 09:27:00,
2013-12-17 03:43:00,35.7,33.0,30.28,SSE,157,0.0,0.0,88,0.00,,,0.00,weatherlink.com 1.10,2013-12-17 09:43:00,
2013-12-17 03:58:00,35.5,32.0,30.28,SSE,157,0.0,0.0,88,0.00,,,0.00,weatherlink.com 1.10,2013-12-17 09:58:00,
2013-12-17 04:13:00,35.2,32.0,30.28,SSE,157,0.0,0.0,88,0.00,,,0.00,weatherlink.com 1.10,2013-12-17 10:13:00,
2013-12-17 04:28:00,34.7,32.0,30.28,SSE,157,0.0,0.0,88,0.00,,,0.00,weatherlink.com 1.10,2013-12-17 10:28:00,
2013-12-17 04:43:00,34.5,31.0,30.28,SSE,157,0.0,1.0,88,0.00,,,0.00,weatherlink.com 1.10,2013-12-17 10:43:00,
2013-12-17 04:58:00,34.4,31.0,30.28,SSE,157,0.0,0.0,88,0.00,,,0.00,weatherlink.com 1.10,2013-12-17 10:58:00,
2013-12-17 05:13:00,34.2,31.0,30.28,SSE,157,0.0,0.0,88,0.00,,,0.00,weatherlink.com 1.10,2013-12-17 11:13:00,
2013-12-17 05:28:00,33.9,31.0,30.29,SSE,157,0.0,0.0,88,0.00,,,0.00,weatherlink.com 1.10,2013-12-17 11:28:00,
2013-12-17 05:43:00,33.5,30.0,30.29,SSE,157,0.0,0.0,88,0.00,,,0.00,weatherlink.com 1.10,2013-12-17 11:43:00,
2013-12-17 05:58:00,33.3,30.0,30.29,SSE,157,0.0,0.0,88,0.00,,,0.00,weatherlink.com 1.10,2013-12-17 11:58:00,
2013-12-17 06:13:00,33.0,30.0,30.30,SSE,157,0.0,0.0,88,0.00,,,0.00,weatherlink.com 1.10,2013-12-17 12:13:00,
2013-12-17 06:28:00,32.9,30.0,30.31,SSE,157,0.0,0.0,88,0.00,,,0.00,weatherlink.com 1.10,2013-12-17 12:28:00,
2013-12-17 06:43:00,32.7,30.0,30.31,SSE,157,0.0,0.0,88,0.00,,,0.00,weatherlink.com 1.10,2013-12-17 12:43:00,
2013-12-17 06:58:00,32.5,29.0,30.31,SSE,157,0.0,0.0,88,0.00,,,0.00,weatherlink.com 1.10,2013-12-17 12:58:00,
2013-12-17 07:13:00,32.3,29.0,30.31,SSE,157,0.0,0.0,88,0.00,,,0.00,weatherlink.com 1.10,2013-12-17 13:13:00,
2013-12-17 07:28:00,32.4,29.0,30.31,SSE,157,0.0,0.0,88,0.00,,,0.00,weatherlink.com 1.10,2013-12-17 13:28:00,
2013-12-17 07:43:00,32.4,29.0,30.31,SSE,157,0.0,0.0,88,0.00,,,0.00,weatherlink.com 1.10,2013-12-17 13:43:00,
2013-12-17 07:58:00,32.6,30.0,30.32,SSE,157,0.0,0.0,88,0.00,,,0.00,weatherlink.com 1.10,2013-12-17 13:58:00,
2013-12-17 08:13:00,33.3,30.0,30.32,SSE,157,0.0,0.0,88,0.00,,,0.00,weatherlink.com 1.10,2013-12-17 14:13:00,
2013-12-17 08:28:00,34.4,31.0,30.32,SSE,157,0.0,0.0,88,0.00,,,0.00,weatherlink.com 1.10,2013-12-17 14:28:00,
2013-12-17 08:43:00,35.4,32.0,30.32,SSE,157,0.0,0.0,87,0.00,,,0.00,weatherlink.com 1.10,2013-12-17 14:43:00,
2013-12-17 08:58:00,37.5,34.0,30.33,SSE,157,0.0,1.0,87,0.00,,,0.00,weatherlink.com 1.10,2013-12-17 14:58:00,
2013-12-17 09:13:00,40.4,37.0,30.33,SSE,157,0.0,0.0,86,0.00,,,0.00,weatherlink.com 1.10,2013-12-17 15:13:00,
2013-12-17 09:28:00,44.3,40.0,30.33,SSE,157,0.0,1.0,85,0.00,,,0.00,weatherlink.com 1.10,2013-12-17 15:28:00,
2013-12-17 09:43:00,48.1,44.0,30.34,SSE,149,0.0,3.0,85,0.00,,,0.00,weatherlink.com 1.10,2013-12-17 15:43:00,
2013-12-17 09:58:00,51.0,47.0,30.34,SW,226,0.0,3.0,87,0.00,,,0.00,weatherlink.com 1.10,2013-12-17 15:58:00,
2013-12-17 10:13:00,52.8,44.0,30.34,SSW,211,0.0,2.0,73,0.00,,,0.00,weatherlink.com 1.10,2013-12-17 16:13:00,
2013-12-17 10:28:00,54.6,44.0,30.34,SE,130,0.0,5.0,68,0.00,,,0.00,weatherlink.com 1.10,2013-12-17 16:28:00,
2013-12-17 10:43:00,56.0,45.0,30.33,SSW,201,0.0,3.0,66,0.00,,,0.00,weatherlink.com 1.10,2013-12-17 16:43:00,
2013-12-17 10:59:00,57.8,44.0,30.33,SSW,209,0.0,2.0,61,0.00,,,0.00,weatherlink.com 1.10,2013-12-17 16:59:00,
2013-12-17 11:14:00,59.4,45.0,30.32,SW,220,4.0,5.0,59,0.00,,,0.00,weatherlink.com 1.10,2013-12-17 17:14:00,
2013-12-17 11:29:00,60.2,43.0,30.32,SE,127,0.0,5.0,53,0.00,,,0.00,weatherlink.com 1.10,2013-12-17 17:29:00,
2013-12-17 11:44:00,61.0,45.0,30.31,SSE,147,0.0,5.0,55,0.00,,,0.00,weatherlink.com 1.10,2013-12-17 17:44:00,
2013-12-17 11:59:00,62.0,43.0,30.30,North,10,0.0,4.0,50,0.00,,,0.00,weatherlink.com 1.10,2013-12-17 17:59:00,
2013-12-17 12:14:00,63.0,42.0,30.29,SSE,165,1.0,4.0,47,0.00,,,0.00,weatherlink.com 1.10,2013-12-17 18:14:00,
2013-12-17 12:29:00,63.5,43.0,30.28,North,350,5.0,6.0,48,0.00,,,0.00,weatherlink.com 1.10,2013-12-17 18:29:00,
2013-12-17 12:44:00,64.2,43.0,30.27,NNE,26,0.0,4.0,47,0.00,,,0.00,weatherlink.com 1.10,2013-12-17 18:44:00,
2013-12-17 12:59:00,64.7,43.0,30.27,SW,235,0.0,8.0,45,0.00,,,0.00,weatherlink.com 1.10,2013-12-17 18:59:00,
2013-12-17 13:14:00,65.5,43.0,30.26,SE,128,0.0,5.0,45,0.00,,,0.00,weatherlink.com 1.10,2013-12-17 19:14:00,
2013-12-17 13:29:00,65.9,43.0,30.25,SSW,196,0.0,4.0,43,0.00,,,0.00,weatherlink.com 1.10,2013-12-17 19:29:00,
2013-12-17 13:44:00,66.6,43.0,30.25,South,174,0.0,3.0,43,0.00,,,0.00,weatherlink.com 1.10,2013-12-17 19:44:00,
2013-12-17 13:59:00,67.1,44.0,30.24,West,278,0.0,3.0,43,0.00,,,0.00,weatherlink.com 1.10,2013-12-17 19:59:00,
2013-12-17 14:14:00,66.5,43.0,30.24,East,93,0.0,7.0,42,0.00,,,0.00,weatherlink.com 1.10,2013-12-17 20:14:00,
2013-12-17 14:29:00,67.2,43.0,30.24,NW,315,2.0,6.0,42,0.00,,,0.00,weatherlink.com 1.10,2013-12-17 20:29:00,
2013-12-17 14:44:00,67.4,42.0,30.24,NW,321,0.0,3.0,40,0.00,,,0.00,weatherlink.com 1.10,2013-12-17 20:44:00,
2013-12-17 14:59:00,67.2,43.0,30.24,WNW,292,0.0,5.0,41,0.00,,,0.00,weatherlink.com 1.10,2013-12-17 20:59:00,
2013-12-17 15:14:00,67.6,42.0,30.24,NW,316,0.0,3.0,40,0.00,,,0.00,weatherlink.com 1.10,2013-12-17 21:14:00,
2013-12-17 15:29:00,67.9,43.0,30.24,South,180,0.0,1.0,40,0.00,,,0.00,weatherlink.com 1.10,2013-12-17 21:29:00,
2013-12-17 15:44:00,67.0,43.0,30.24,South,180,0.0,1.0,42,0.00,,,0.00,weatherlink.com 1.10,2013-12-17 21:44:00,
2013-12-17 15:59:00,66.6,45.0,30.25,South,180,0.0,0.0,46,0.00,,,0.00,weatherlink.com 1.10,2013-12-17 21:59:00,
2013-12-17 16:14:00,65.2,45.0,30.25,South,180,0.0,0.0,48,0.00,,,0.00,weatherlink.com 1.10,2013-12-17 22:14:00,
2013-12-17 16:29:00,63.6,45.0,30.25,South,180,0.0,0.0,52,0.00,,,0.00,weatherlink.com 1.10,2013-12-17 22:29:00,
2013-12-17 16:44:00,62.4,45.0,30.25,South,180,0.0,0.0,54,0.00,,,0.00,weatherlink.com 1.10,2013-12-17 22:44:00,
2013-12-17 16:59:00,60.3,48.0,30.26,South,180,0.0,0.0,65,0.00,,,0.00,weatherlink.com 1.10,2013-12-17 22:59:00,
2013-12-17 17:14:00,57.9,49.0,30.26,South,180,0.0,0.0,72,0.00,,,0.00,weatherlink.com 1.10,2013-12-17 23:14:00,
2013-12-17 17:29:00,55.8,48.0,30.26,South,180,0.0,0.0,75,0.00,,,0.00,weatherlink.com 1.10,2013-12-17 23:29:00,
2013-12-17 17:44:00,54.3,48.0,30.27,South,180,0.0,0.0,79,0.00,,,0.00,weatherlink.com 1.10,2013-12-17 23:44:00,
2013-12-17 17:59:00,52.8,47.0,30.27,South,180,0.0,0.0,82,0.00,,,0.00,weatherlink.com 1.10,2013-12-17 23:59:00,
2013-12-17 18:14:00,51.5,47.0,30.27,South,180,0.0,0.0,84,0.00,,,0.00,weatherlink.com 1.10,2013-12-18 00:14:00,
2013-12-17 18:29:00,50.4,46.0,30.27,South,180,0.0,0.0,86,0.00,,,0.00,weatherlink.com 1.10,2013-12-18 00:29:00,
2013-12-17 18:44:00,49.2,46.0,30.28,South,180,0.0,0.0,87,0.00,,,0.00,weatherlink.com 1.10,2013-12-18 00:44:00,
2013-12-17 18:59:00,48.3,45.0,30.28,South,180,0.0,0.0,87,0.00,,,0.00,weatherlink.com 1.10,2013-12-18 00:59:00,
2013-12-17 19:14:00,47.6,44.0,30.28,South,180,0.0,0.0,88,0.00,,,0.00,weatherlink.com 1.10,2013-12-18 01:14:00,
2013-12-17 19:29:00,46.7,43.0,30.29,South,180,0.0,0.0,88,0.00,,,0.00,weatherlink.com 1.10,2013-12-18 01:29:00,
2013-12-17 19:44:00,46.1,43.0,30.29,South,180,0.0,0.0,88,0.00,,,0.00,weatherlink.com 1.10,2013-12-18 01:44:00,
2013-12-17 19:59:00,45.6,43.0,30.29,South,180,0.0,0.0,89,0.00,,,0.00,weatherlink.com 1.10,2013-12-18 01:59:00,
2013-12-17 20:14:00,45.0,42.0,30.29,South,180,0.0,0.0,89,0.00,,,0.00,weatherlink.com 1.10,2013-12-18 02:14:00,
2013-12-17 20:29:00,44.5,42.0,30.29,South,180,0.0,0.0,89,0.00,,,0.00,weatherlink.com 1.10,2013-12-18 02:29:00,
2013-12-17 20:44:00,44.1,41.0,30.29,South,180,0.0,0.0,89,0.00,,,0.00,weatherlink.com 1.10,2013-12-18 02:44:00,
2013-12-17 20:59:00,43.5,41.0,30.29,South,180,0.0,0.0,89,0.00,,,0.00,weatherlink.com 1.10,2013-12-18 02:59:00,
2013-12-17 21:14:00,43.0,40.0,30.29,South,180,0.0,0.0,89,0.00,,,0.00,weatherlink.com 1.10,2013-12-18 03:14:00,
2013-12-17 21:29:00,42.5,40.0,30.29,South,180,0.0,0.0,89,0.00,,,0.00,weatherlink.com 1.10,2013-12-18 03:29:00,
2013-12-17 21:44:00,42.2,39.0,30.29,South,180,0.0,0.0,89,0.00,,,0.00,weatherlink.com 1.10,2013-12-18 03:44:00,
2013-12-17 21:59:00,41.7,39.0,30.29,South,180,0.0,0.0,89,0.00,,,0.00,weatherlink.com 1.10,2013-12-18 03:59:00,
2013-12-17 22:14:00,41.4,38.0,30.29,South,180,0.0,0.0,89,0.00,,,0.00,weatherlink.com 1.10,2013-12-18 04:14:00,
2013-12-17 22:29:00,41.0,38.0,30.30,South,180,0.0,0.0,89,0.00,,,0.00,weatherlink.com 1.10,2013-12-18 04:29:00,
2013-12-17 22:44:00,40.7,38.0,30.30,South,180,0.0,0.0,89,0.00,,,0.00,weatherlink.com 1.10,2013-12-18 04:44:00,
2013-12-17 22:59:00,40.4,38.0,30.30,South,180,0.0,0.0,89,0.00,,,0.00,weatherlink.com 1.10,2013-12-18 04:59:00,
2013-12-17 23:14:00,40.0,37.0,30.30,South,180,0.0,0.0,89,0.00,,,0.00,weatherlink.com 1.10,2013-12-18 05:14:00,
2013-12-17 23:30:00,39.8,37.0,30.29,South,180,0.0,0.0,89,0.00,,,0.00,weatherlink.com 1.10,2013-12-18 05:30:00,
2013-12-17 23:44:00,39.5,37.0,30.29,South,180,0.0,0.0,89,0.00,,,0.00,weatherlink.com 1.10,2013-12-18 05:44:00,